Change the Weather History Date:

Sunday, October 16, 2011

  Actual Average Record
Temperature  
Mean Temperature 70 °F 67 °F  
Max Temperature 88 °F 80 °F 88 °F (1941)
Min Temperature 53 °F 55 °F 42 °F (1943)
Degree Days  
Heating Degree Days 0 1  
Month to date heating degree days 11  
Since 1 July heating degree days 13  
Cooling Degree Days 6 4  
Month to date cooling degree days 89  
Year to date cooling degree days 2317  
Growing Degree Days 20 (Base 50)    
Moisture  
Dew Point 52 °F    
Average Humidity 61    
Maximum Humidity 88    
Minimum Humidity 27    
Precipitation  
Precipitation 0.00 in 0.12 in 1.07 in (1955)
Month to date precipitation 1.71  
Year to date precipitation 43.69  
Sea Level Pressure  
Sea Level Pressure 30.12 in    
Wind  
Wind Speed 2 mph (NE)    
Max Wind Speed 8 mph    
Max Gust Speed -    
Visibility 10 miles    
Events      
T = Trace of Precipitation, MM = Missing Value Source: NWS Daily Summary

Daily Weather History Graph

Daily Weather History Graph

Search for Another Location

Airport or City:

Trip Planner

Search our weather history database for the weather conditions in past years. The results will help you decide how hot, cold, wet, or windy it might be!

Date:

Astronomy

Oct. 16, 2011 Rise Set
Actual Time 6:45 AM CDT 6:09 PM CDT
Civil Twilight 6:20 AM CDT 6:33 PM CDT
Nautical Twilight 5:52 AM CDT 7:01 PM CDT
Astronomical Twilight 5:24 AM CDT 7:29 PM CDT
Moon 9:10 PM CDT (10/16) 10:45 AM CDT (10/16)
Length of Visible Light 12h 12m
Length of Day
11h 23m
Waning Gibbous, 82% of the Moon is Illuminated
Oct 16
Waning Gibbous
Oct 19
Last Quarter
Oct 26
New
Nov 2
First Quarter
Nov 10
Full

Hourly Weather History & Observations

Time (CDT) Temp. Dew Point Humidity Pressure Visibility Wind Dir Wind Speed Gust Speed Precip Events Conditions
12:53 AM 57.2 °F 51.8 °F 82% 30.16 in 10.0 mi Calm Calm - N/A   Clear
1:53 AM 55.9 °F 52.0 °F 87% 30.14 in 10.0 mi Calm Calm - N/A   Clear
2:53 AM 55.4 °F 51.8 °F 88% 30.15 in 10.0 mi Calm Calm - N/A   Clear
3:53 AM 55.4 °F 51.8 °F 88% 30.15 in 10.0 mi Calm Calm - N/A   Clear
4:53 AM 55.0 °F 51.1 °F 86% 30.14 in 10.0 mi NNE 4.6 mph - N/A   Clear
5:53 AM 53.6 °F 50.0 °F 88% 30.16 in 10.0 mi NE 6.9 mph - N/A   Clear
6:53 AM 55.4 °F 51.8 °F 88% 30.17 in 10.0 mi NE 5.8 mph - N/A   Clear
7:53 AM 62.1 °F 54.0 °F 75% 30.17 in 10.0 mi NE 4.6 mph - N/A   Clear
8:53 AM 70.0 °F 54.0 °F 57% 30.18 in 10.0 mi East 5.8 mph - N/A   Clear
9:53 AM 75.9 °F 50.0 °F 40% 30.19 in 10.0 mi East 8.1 mph - N/A   Clear
10:53 AM 80.1 °F 50.0 °F 35% 30.18 in 10.0 mi SE 5.8 mph - N/A   Clear
11:53 AM 82.9 °F 51.1 °F 33% 30.16 in 10.0 mi Calm Calm - N/A   Clear
12:53 PM 86.0 °F 48.0 °F 27% 30.13 in 10.0 mi North 3.5 mph - N/A   Clear
1:53 PM 87.8 °F 50.0 °F 27% 30.10 in 10.0 mi Variable 3.5 mph - N/A   Clear
2:53 PM 88.0 °F 50.0 °F 27% 30.07 in 10.0 mi North 5.8 mph - N/A   Clear
3:53 PM 88.0 °F 51.1 °F 28% 30.06 in 10.0 mi Calm Calm - N/A   Clear
4:53 PM 86.0 °F 48.0 °F 27% 30.05 in 10.0 mi NE 4.6 mph - N/A   Clear
5:53 PM 78.1 °F 55.9 °F 46% 30.04 in 10.0 mi NE 4.6 mph - N/A   Clear
6:53 PM 68.0 °F 57.0 °F 68% 30.06 in 10.0 mi NE 4.6 mph - N/A   Clear
7:53 PM 69.1 °F 54.0 °F 58% 30.07 in 10.0 mi Calm Calm - N/A   Clear
8:53 PM 64.9 °F 55.0 °F 70% 30.08 in 10.0 mi Calm Calm - N/A   Clear
9:53 PM 62.1 °F 55.9 °F 80% 30.08 in 10.0 mi Calm Calm - N/A   Clear
10:53 PM 60.1 °F 55.0 °F 83% 30.08 in 10.0 mi Calm Calm - N/A   Clear
11:53 PM 61.0 °F 54.0 °F 78% 30.07 in 10.0 mi Calm Calm - N/A   Clear